P/2020 S6 ( Leonard )

Japanese version
Home page
Updated on February 21, 2021

---------------------------------------------------------------------

* Profile

Discovery Date September 29, 2020
Magnitude 20.5 mag
Discoverer Gregory J. Leonard (Mount Lemmon Survey)

* Pictures

* Orbital Elements

Epoch 2020 Nov. 7.0 TT = JDT 2459160.5
T 2020 Nov. 23.61050 TT                                 Rudenko
q   1.8748291            (2000.0)            P               Q
n   0.14436890     Peri.  176.65319     +0.50980700     -0.82711417
a   3.5987660      Node   242.57088     +0.78298019     +0.56004549
e   0.4790356      Incl.   15.46001     +0.35642509     -0.04723554
P   6.83
From 276 observations 2020 Aug. 28-2021 Jan. 18, mean residual 0".6.

* Magnitudes Graph

        m1 = 10.0 + 5 log d + 30.0 log r

---------------------------------------------------------------------

The orbital elements are published on M.P.E.C. 2021-B143.
The magnitudes graphs are made with Comet for Windows.

---------------------------------------------------------------------

Copyright(C) Seiichi Yoshida (comet@aerith.net). All rights reserved.